Location: *
(41.7492°S, 135.4150°W)
Time: 23:24:16
(UTC+00:00)

NOSS 3-4 (C) - Pass Details

Date: 20 September 2021
Orbit: 868 x 1344 km, 63.4° (Epoch: 25 October)

Event Time Altitude Azimuth Distance (km) Brightness Sun altitude
Rises 13:27:31 0° 226° (SW) 3,937 6.4 -16.7°
Enters shadow 13:29:23 - 232° (SW) 3,340 5.9 -16.4°
Exits shadow 13:34:45 22° 273° (W) 2,060 4.6 -15.4°
Maximum altitude 13:35:55 23° 288° (WNW) 1,982 4.5 -15.2°
Drops below altitude 10° 13:40:34 10° 337° (NNW) 2,641 5.4 -14.4°
Sets 13:43:30 0° 352° (N) 3,523 6.2 -13.8°
